Year,Month,Day,Hour,Minute,Value (Times are PST for windgust in km/hr)
2010,05,01,00,00,11.30
2010,05,01,00,01,8.10
2010,05,01,00,02,8.10
2010,05,01,00,03,9.60
2010,05,01,00,04,11.30
2010,05,01,00,05,8.10
2010,05,01,00,06,8.10
2010,05,01,00,07,4.80
2010,05,01,00,08,8.10
2010,05,01,00,09,8.10
2010,05,01,00,10,9.60
2010,05,01,00,11,8.10
2010,05,01,00,12,9.60
2010,05,01,00,18,9.60
2010,05,01,00,19,11.30
2010,05,01,00,20,9.60
2010,05,01,00,21,8.10
2010,05,01,00,22,9.60
2010,05,01,00,23,16.10
2010,05,01,00,24,16.10
2010,05,01,00,25,8.10
2010,05,01,00,26,6.40
2010,05,01,00,27,8.10
2010,05,01,00,28,11.30
2010,05,01,00,29,12.90
2010,05,01,00,30,9.60
2010,05,01,00,31,9.60
2010,05,01,00,32,8.10
2010,05,01,00,33,9.60
2010,05,01,00,34,6.40
2010,05,01,00,35,6.40
2010,05,01,00,36,4.80
2010,05,01,00,37,1.60
2010,05,01,00,39,4.80
2010,05,01,00,40,4.80
2010,05,01,00,41,3.20
2010,05,01,00,42,3.20
2010,05,01,00,43,4.80
2010,05,01,00,44,6.40
2010,05,01,00,45,3.20
2010,05,01,00,46,3.20
2010,05,01,00,47,1.60
2010,05,01,00,48,4.80
2010,05,01,00,49,4.80
2010,05,01,00,50,4.80
2010,05,01,00,51,1.60
2010,05,01,00,57,3.20
2010,05,01,00,58,3.20
2010,05,01,00,59,3.20
2010,05,01,02,20,1.60
2010,05,01,02,21,1.60
2010,05,01,02,22,3.20
2010,05,01,02,23,4.80
2010,05,01,02,24,4.80
2010,05,01,02,25,3.20
2010,05,01,02,26,1.60
2010,05,01,02,30,1.60
2010,05,01,02,33,1.60
2010,05,01,02,54,1.60
2010,05,01,02,55,1.60
2010,05,01,02,56,1.60
2010,05,01,02,57,3.20
2010,05,01,02,58,1.60
2010,05,01,02,59,3.20
2010,05,01,03,00,3.20
2010,05,01,03,01,3.20
2010,05,01,03,48,1.60
2010,05,01,03,56,1.60
2010,05,01,03,59,3.20
2010,05,01,04,00,3.20
2010,05,01,04,01,3.20
2010,05,01,04,02,1.60
2010,05,01,04,03,3.20
2010,05,01,04,04,4.80
2010,05,01,04,05,3.20
2010,05,01,04,06,3.20
2010,05,01,04,07,3.20
2010,05,01,04,08,3.20
2010,05,01,04,09,1.60
2010,05,01,04,10,3.20
2010,05,01,04,11,3.20
2010,05,01,04,12,3.20
2010,05,01,04,13,3.20
2010,05,01,04,15,3.20
2010,05,01,04,16,3.20
2010,05,01,04,32,1.60
2010,05,01,04,36,3.20
2010,05,01,04,37,3.20
2010,05,01,04,38,4.80
2010,05,01,04,39,4.80
2010,05,01,04,40,3.20
2010,05,01,04,41,3.20
2010,05,01,04,42,3.20
2010,05,01,04,43,3.20
2010,05,01,04,44,1.60
2010,05,01,04,45,1.60
2010,05,01,04,46,1.60
2010,05,01,04,47,3.20
2010,05,01,04,48,3.20
2010,05,01,04,49,3.20
2010,05,01,04,50,1.60
2010,05,01,04,51,1.60
2010,05,01,04,52,3.20
2010,05,01,04,53,3.20
2010,05,01,04,54,4.80
2010,05,01,04,55,3.20
2010,05,01,04,56,3.20
2010,05,01,04,57,4.80
2010,05,01,04,58,6.40
2010,05,01,04,59,3.20
2010,05,01,05,00,3.20
2010,05,01,05,01,3.20
2010,05,01,05,02,3.20
2010,05,01,05,03,3.20
2010,05,01,05,04,4.80
2010,05,01,05,05,4.80
2010,05,01,05,06,4.80
2010,05,01,05,07,3.20
2010,05,01,05,08,4.80
2010,05,01,05,09,4.80
2010,05,01,05,10,4.80
2010,05,01,05,11,6.40
2010,05,01,05,12,3.20
2010,05,01,05,13,3.20
2010,05,01,05,14,4.80
2010,05,01,05,15,4.80
2010,05,01,05,16,3.20
2010,05,01,05,17,3.20
2010,05,01,05,18,3.20
2010,05,01,05,19,3.20
2010,05,01,05,20,3.20
2010,05,01,05,21,4.80
2010,05,01,05,22,6.40
2010,05,01,05,23,4.80
2010,05,01,05,24,4.80
2010,05,01,05,25,3.20
2010,05,01,05,26,4.80
2010,05,01,05,27,4.80
2010,05,01,05,28,4.80
2010,05,01,05,29,4.80
2010,05,01,05,30,3.20
2010,05,01,05,31,3.20
2010,05,01,05,32,3.20
2010,05,01,05,33,3.20
2010,05,01,05,34,1.60
2010,05,01,05,36,1.60
2010,05,01,05,41,3.20
2010,05,01,05,42,1.60
2010,05,01,05,43,1.60
2010,05,01,05,44,1.60
2010,05,01,05,57,1.60
2010,05,01,05,58,3.20
2010,05,01,05,59,3.20
2010,05,01,06,00,3.20
2010,05,01,06,01,4.80
2010,05,01,06,02,3.20
2010,05,01,06,03,3.20
2010,05,01,06,04,1.60
2010,05,01,06,05,3.20
2010,05,01,06,10,1.60
2010,05,01,06,11,1.60
2010,05,01,07,35,1.60
2010,05,01,07,37,3.20
2010,05,01,07,38,3.20
2010,05,01,07,40,3.20
2010,05,01,07,41,3.20
2010,05,01,07,42,6.40
2010,05,01,07,43,6.40
2010,05,01,07,44,6.40
2010,05,01,07,45,4.80
2010,05,01,07,46,3.20
2010,05,01,07,47,1.60
2010,05,01,07,48,3.20
2010,05,01,07,49,1.60
2010,05,01,07,50,4.80
2010,05,01,07,51,3.20
2010,05,01,07,52,1.60
2010,05,01,07,53,3.20
2010,05,01,07,54,3.20
2010,05,01,07,55,4.80
2010,05,01,07,56,4.80
2010,05,01,07,57,3.20
2010,05,01,07,58,3.20
2010,05,01,07,59,1.60
2010,05,01,08,01,1.60
2010,05,01,08,02,3.20
2010,05,01,08,03,6.40
2010,05,01,08,04,6.40
2010,05,01,08,05,6.40
2010,05,01,08,06,6.40
2010,05,01,08,07,6.40
2010,05,01,08,08,6.40
2010,05,01,08,09,6.40
2010,05,01,08,10,4.80
2010,05,01,08,11,4.80
2010,05,01,08,12,6.40
2010,05,01,08,13,6.40
2010,05,01,08,14,6.40
2010,05,01,08,15,6.40
2010,05,01,08,16,6.40
2010,05,01,08,17,3.20
2010,05,01,08,18,1.60
2010,05,01,08,20,3.20
2010,05,01,08,24,4.80
2010,05,01,08,25,4.80
2010,05,01,08,26,1.60
2010,05,01,08,29,4.80
2010,05,01,08,30,6.40
2010,05,01,08,31,6.40
2010,05,01,08,32,6.40
2010,05,01,08,33,6.40
2010,05,01,08,34,6.40
2010,05,01,08,35,11.30
2010,05,01,08,36,6.40
2010,05,01,08,37,11.30
2010,05,01,08,38,16.10
2010,05,01,08,39,11.30
2010,05,01,08,40,16.10
2010,05,01,08,41,16.10
2010,05,01,08,42,11.30
2010,05,01,08,43,12.90
2010,05,01,08,44,11.30
2010,05,01,08,45,14.50
2010,05,01,08,46,11.30
2010,05,01,08,47,16.10
2010,05,01,08,48,11.30
2010,05,01,08,49,17.70
2010,05,01,08,50,14.50
2010,05,01,08,51,11.30
2010,05,01,08,52,19.30
2010,05,01,08,53,9.60
2010,05,01,08,54,9.60
2010,05,01,08,55,14.50
2010,05,01,08,56,8.10
2010,05,01,08,57,11.30
2010,05,01,08,58,14.50
2010,05,01,08,59,20.90
2010,05,01,09,00,16.10
2010,05,01,09,01,16.10
2010,05,01,09,02,19.30
2010,05,01,09,03,11.30
2010,05,01,09,04,17.70
2010,05,01,09,05,16.10
2010,05,01,09,06,16.10
2010,05,01,09,07,19.30
2010,05,01,09,08,14.50
2010,05,01,09,09,17.70
2010,05,01,09,10,11.30
2010,05,01,09,11,17.70
2010,05,01,09,12,17.70
2010,05,01,09,13,14.50
2010,05,01,09,14,11.30
2010,05,01,09,15,8.10
2010,05,01,09,16,9.60
2010,05,01,09,17,17.70
2010,05,01,09,18,14.50
2010,05,01,09,19,11.30
2010,05,01,09,20,6.40
2010,05,01,09,21,17.70
2010,05,01,09,22,14.50
2010,05,01,09,23,6.40
2010,05,01,09,24,6.40
2010,05,01,09,25,22.50
2010,05,01,09,26,9.60
2010,05,01,09,27,9.60
2010,05,01,09,28,9.60
2010,05,01,09,29,16.10
2010,05,01,09,30,11.30
2010,05,01,09,31,8.10
2010,05,01,09,32,3.20
2010,05,01,09,33,9.60
2010,05,01,09,34,8.10
2010,05,01,09,35,4.80
2010,05,01,09,36,12.90
2010,05,01,09,37,14.50
2010,05,01,09,38,16.10
2010,05,01,09,39,9.60
2010,05,01,09,40,14.50
2010,05,01,09,41,14.50
2010,05,01,09,42,24.20
2010,05,01,09,43,16.10
2010,05,01,09,44,20.90
2010,05,01,09,45,19.30
2010,05,01,09,46,17.70
2010,05,01,09,47,19.30
2010,05,01,09,48,19.30
2010,05,01,09,49,17.70
2010,05,01,09,50,22.50
2010,05,01,09,51,19.30
2010,05,01,09,52,16.10
2010,05,01,09,53,17.70
2010,05,01,09,54,19.30
2010,05,01,09,55,16.10
2010,05,01,09,56,16.10
2010,05,01,09,57,20.90
2010,05,01,09,58,19.30
2010,05,01,09,59,22.50
2010,05,01,10,00,27.40
2010,05,01,10,01,19.30
2010,05,01,10,02,24.20
2010,05,01,10,03,24.20
2010,05,01,10,04,20.90
2010,05,01,10,05,25.70
2010,05,01,10,06,14.50
2010,05,01,10,07,20.90
2010,05,01,10,08,19.30
2010,05,01,10,09,16.10
2010,05,01,10,10,25.70
2010,05,01,10,11,20.90
2010,05,01,10,12,24.20
2010,05,01,10,13,6.40
2010,05,01,10,14,11.30
2010,05,01,10,15,20.90
2010,05,01,10,16,20.90
2010,05,01,10,17,22.50
2010,05,01,10,18,20.90
2010,05,01,10,19,17.70
2010,05,01,10,20,24.20
2010,05,01,10,21,17.70
2010,05,01,10,22,17.70
2010,05,01,10,23,17.70
2010,05,01,10,24,20.90
2010,05,01,10,25,25.70
2010,05,01,10,26,24.20
2010,05,01,10,27,20.90
2010,05,01,10,28,19.30
2010,05,01,10,29,16.10
2010,05,01,10,30,20.90
2010,05,01,10,31,17.70
2010,05,01,10,32,19.30
2010,05,01,10,33,24.20
2010,05,01,10,34,22.50
2010,05,01,10,35,16.10
2010,05,01,10,36,24.20
2010,05,01,10,37,19.30
2010,05,01,10,38,17.70
2010,05,01,10,39,14.50
2010,05,01,10,40,16.10
2010,05,01,10,41,24.20
2010,05,01,10,42,24.20
2010,05,01,10,43,27.40
2010,05,01,10,44,32.20
2010,05,01,10,45,22.50
2010,05,01,10,46,17.70
2010,05,01,10,47,24.20
2010,05,01,10,48,20.90
2010,05,01,10,49,17.70
2010,05,01,10,50,19.30
2010,05,01,10,51,17.70
2010,05,01,10,52,19.30
2010,05,01,10,53,24.20
2010,05,01,10,54,22.50
2010,05,01,10,55,22.50
2010,05,01,10,56,24.20
2010,05,01,10,57,24.20
2010,05,01,10,58,22.50
2010,05,01,10,59,20.90
2010,05,01,11,00,22.50
2010,05,01,11,01,19.30
2010,05,01,11,02,20.90
2010,05,01,11,03,29.00
2010,05,01,11,04,24.20
2010,05,01,11,05,30.60
2010,05,01,11,06,25.70
2010,05,01,11,07,25.70
2010,05,01,11,08,27.40
2010,05,01,11,09,30.60
2010,05,01,11,10,30.60
2010,05,01,11,11,20.90
2010,05,01,11,12,11.30
2010,05,01,11,13,20.90
2010,05,01,11,14,17.70
2010,05,01,11,15,16.10
2010,05,01,11,16,17.70
2010,05,01,11,17,22.50
2010,05,01,11,18,16.10
2010,05,01,11,19,25.70
2010,05,01,11,20,22.50
2010,05,01,11,21,32.20
2010,05,01,11,22,30.60
2010,05,01,11,23,30.60
2010,05,01,11,24,20.90
2010,05,01,11,25,20.90
2010,05,01,11,26,24.20
2010,05,01,11,27,20.90
2010,05,01,11,28,24.20
2010,05,01,11,29,14.50
2010,05,01,11,30,16.10
2010,05,01,11,31,16.10
2010,05,01,11,32,11.30
2010,05,01,11,33,11.30
2010,05,01,11,34,16.10
2010,05,01,11,35,19.30
2010,05,01,11,36,11.30
2010,05,01,11,37,19.30
2010,05,01,11,38,14.50
2010,05,01,11,39,19.30
2010,05,01,11,40,20.90
2010,05,01,11,41,24.20
2010,05,01,11,42,14.50
2010,05,01,11,43,11.30
2010,05,01,11,44,19.30
2010,05,01,11,45,29.00
2010,05,01,11,46,25.70
2010,05,01,11,47,20.90
2010,05,01,11,48,11.30
2010,05,01,11,49,20.90
2010,05,01,11,50,22.50
2010,05,01,11,51,20.90
2010,05,01,11,52,20.90
2010,05,01,11,53,20.90
2010,05,01,11,54,19.30
2010,05,01,11,55,19.30
2010,05,01,11,56,29.00
2010,05,01,11,57,24.20
2010,05,01,11,58,27.40
2010,05,01,11,59,20.90
2010,05,01,12,00,30.60
2010,05,01,12,01,17.70
2010,05,01,12,02,11.30
2010,05,01,12,03,29.00
2010,05,01,12,04,27.40
2010,05,01,12,05,30.60
2010,05,01,12,06,29.00
2010,05,01,12,07,22.50
2010,05,01,12,08,22.50
2010,05,01,12,09,30.60
2010,05,01,12,10,33.80
2010,05,01,12,11,22.50
2010,05,01,12,12,27.40
2010,05,01,12,13,30.60
2010,05,01,12,14,19.30
2010,05,01,12,15,24.20
2010,05,01,12,16,27.40
2010,05,01,12,17,17.70
2010,05,01,12,18,20.90
2010,05,01,12,19,24.20
2010,05,01,12,20,19.30
2010,05,01,12,21,24.20
2010,05,01,12,22,29.00
2010,05,01,12,23,33.80
2010,05,01,12,24,30.60
2010,05,01,12,25,29.00
2010,05,01,12,26,22.50
2010,05,01,12,27,32.20
2010,05,01,12,28,30.60
2010,05,01,12,29,30.60
2010,05,01,12,30,35.40
2010,05,01,12,31,29.00
2010,05,01,12,32,32.20
2010,05,01,12,33,33.80
2010,05,01,12,34,22.50
2010,05,01,12,35,29.00
2010,05,01,12,36,22.50
2010,05,01,12,37,22.50
2010,05,01,12,38,32.20
2010,05,01,12,39,22.50
2010,05,01,12,40,27.40
2010,05,01,12,41,27.40
2010,05,01,12,42,20.90
2010,05,01,12,43,19.30
2010,05,01,12,44,17.70
2010,05,01,12,45,32.20
2010,05,01,12,46,25.70
2010,05,01,12,47,17.70
2010,05,01,12,48,25.70
2010,05,01,12,49,25.70
2010,05,01,12,50,27.40
2010,05,01,12,51,27.40
2010,05,01,12,52,32.20
2010,05,01,12,53,25.70
2010,05,01,12,54,19.30
2010,05,01,12,55,30.60
2010,05,01,12,56,37.00
2010,05,01,12,57,33.80
2010,05,01,12,58,24.20
2010,05,01,12,59,27.40
2010,05,01,13,00,25.70
2010,05,01,13,01,24.20
2010,05,01,13,02,33.80
2010,05,01,13,03,20.90
2010,05,01,13,04,25.70
2010,05,01,13,05,16.10
2010,05,01,13,06,25.70
2010,05,01,13,07,33.80
2010,05,01,13,08,19.30
2010,05,01,13,09,25.70
2010,05,01,13,10,29.00
2010,05,01,13,11,40.20
2010,05,01,13,12,27.40
2010,05,01,13,13,24.20
2010,05,01,13,14,22.50
2010,05,01,13,15,17.70
2010,05,01,13,16,45.10
2010,05,01,13,17,27.40
2010,05,01,13,18,22.50
2010,05,01,13,19,29.00
2010,05,01,13,20,22.50
2010,05,01,13,21,33.80
2010,05,01,13,22,46.70
2010,05,01,13,23,27.40
2010,05,01,13,24,33.80
2010,05,01,13,25,20.90
2010,05,01,13,26,16.10
2010,05,01,13,27,17.70
2010,05,01,13,28,19.30
2010,05,01,13,29,22.50
2010,05,01,13,30,17.70
2010,05,01,13,31,11.30
2010,05,01,13,32,19.30
2010,05,01,13,33,17.70
2010,05,01,13,34,16.10
2010,05,01,13,35,25.70
2010,05,01,13,36,17.70
2010,05,01,13,37,17.70
2010,05,01,13,38,17.70
2010,05,01,13,39,20.90
2010,05,01,13,40,27.40
2010,05,01,13,41,33.80
2010,05,01,13,42,30.60
2010,05,01,13,43,25.70
2010,05,01,13,44,24.20
2010,05,01,13,45,19.30
2010,05,01,13,46,20.90
2010,05,01,13,47,17.70
2010,05,01,13,48,24.20
2010,05,01,13,49,24.20
2010,05,01,13,50,20.90
2010,05,01,13,51,19.30
2010,05,01,13,52,25.70
2010,05,01,13,53,29.00
2010,05,01,13,54,25.70
2010,05,01,13,55,30.60
2010,05,01,13,56,25.70
2010,05,01,13,57,24.20
2010,05,01,13,58,22.50
2010,05,01,13,59,24.20
2010,05,01,14,00,32.20
2010,05,01,14,01,32.20
2010,05,01,14,02,33.80
2010,05,01,14,03,38.60
2010,05,01,14,04,33.80
2010,05,01,14,05,40.20
2010,05,01,14,06,35.40
2010,05,01,14,07,38.60
2010,05,01,14,08,41.80
2010,05,01,14,09,46.70
2010,05,01,14,10,25.70
2010,05,01,14,11,24.20
2010,05,01,14,12,29.00
2010,05,01,14,13,30.60
2010,05,01,14,14,45.10
2010,05,01,14,15,37.00
2010,05,01,14,16,38.60
2010,05,01,14,17,35.40
2010,05,01,14,18,32.20
2010,05,01,14,19,20.90
2010,05,01,14,20,32.20
2010,05,01,14,21,35.40
2010,05,01,14,22,37.00
2010,05,01,14,23,43.50
2010,05,01,14,24,38.60
2010,05,01,14,25,41.80
2010,05,01,14,26,35.40
2010,05,01,14,27,25.70
2010,05,01,14,28,46.70
2010,05,01,14,29,57.90
2010,05,01,14,30,45.10
2010,05,01,14,31,53.10
2010,05,01,14,32,45.10
2010,05,01,14,33,45.10
2010,05,01,14,34,53.10
2010,05,01,14,35,45.10
2010,05,01,14,36,37.00
2010,05,01,14,37,45.10
2010,05,01,14,38,41.80
2010,05,01,14,39,38.60
2010,05,01,14,40,38.60
2010,05,01,14,41,46.70
2010,05,01,14,42,48.30
2010,05,01,14,43,37.00
2010,05,01,14,44,53.10
2010,05,01,14,45,40.20
2010,05,01,14,46,37.00
2010,05,01,14,47,48.30
2010,05,01,14,48,35.40
2010,05,01,14,49,41.80
2010,05,01,14,50,45.10
2010,05,01,14,51,40.20
2010,05,01,14,52,46.70
2010,05,01,14,53,48.30
2010,05,01,14,54,38.60
2010,05,01,14,55,33.80
2010,05,01,14,56,25.70
2010,05,01,14,57,32.20
2010,05,01,14,58,43.50
2010,05,01,14,59,38.60
2010,05,01,15,00,43.50
2010,05,01,15,01,38.60
2010,05,01,15,02,30.60
2010,05,01,15,03,43.50
2010,05,01,15,04,33.80
2010,05,01,15,05,37.00
2010,05,01,15,06,27.40
2010,05,01,15,07,46.70
2010,05,01,15,08,38.60
2010,05,01,15,09,41.80
2010,05,01,15,10,40.20
2010,05,01,15,11,41.80
2010,05,01,15,12,45.10
2010,05,01,15,13,29.00
2010,05,01,15,14,35.40
2010,05,01,15,15,30.60
2010,05,01,15,16,38.60
2010,05,01,15,17,38.60
2010,05,01,15,18,48.30
2010,05,01,15,19,37.00
2010,05,01,15,20,43.50
2010,05,01,15,21,37.00
2010,05,01,15,22,24.20
2010,05,01,15,23,33.80
2010,05,01,15,24,35.40
2010,05,01,15,25,32.20
2010,05,01,15,26,29.00
2010,05,01,15,27,30.60
2010,05,01,15,28,35.40
2010,05,01,15,29,32.20
2010,05,01,15,30,25.70
2010,05,01,15,31,43.50
2010,05,01,15,32,30.60
2010,05,01,15,33,33.80
2010,05,01,15,34,25.70
2010,05,01,15,35,46.70
2010,05,01,15,36,46.70
2010,05,01,15,37,40.20
2010,05,01,15,38,32.20
2010,05,01,15,39,27.40
2010,05,01,15,40,32.20
2010,05,01,15,41,38.60
2010,05,01,15,42,35.40
2010,05,01,15,43,38.60
2010,05,01,15,44,45.10
2010,05,01,15,45,46.70
2010,05,01,15,46,41.80
2010,05,01,15,47,43.50
2010,05,01,15,48,27.40
2010,05,01,15,49,41.80
2010,05,01,15,50,38.60
2010,05,01,15,51,32.20
2010,05,01,15,52,37.00
2010,05,01,15,53,37.00
2010,05,01,15,54,32.20
2010,05,01,15,55,22.50
2010,05,01,15,56,33.80
2010,05,01,15,57,30.60
2010,05,01,15,58,35.40
2010,05,01,15,59,43.50
2010,05,01,16,00,43.50
2010,05,01,16,01,48.30
2010,05,01,16,02,41.80
2010,05,01,16,03,30.60
2010,05,01,16,04,32.20
2010,05,01,16,05,24.20
2010,05,01,16,06,25.70
2010,05,01,16,07,35.40
2010,05,01,16,08,46.70
2010,05,01,16,09,40.20
2010,05,01,16,10,33.80
2010,05,01,16,11,49.90
2010,05,01,16,12,35.40
2010,05,01,16,13,49.90
2010,05,01,16,14,41.80
2010,05,01,16,15,53.10
2010,05,01,16,16,37.00
2010,05,01,16,17,40.20
2010,05,01,16,18,29.00
2010,05,01,16,19,40.20
2010,05,01,16,20,33.80
2010,05,01,16,21,41.80
2010,05,01,16,22,37.00
2010,05,01,16,23,25.70
2010,05,01,16,24,30.60
2010,05,01,16,25,35.40
2010,05,01,16,26,33.80
2010,05,01,16,27,38.60
2010,05,01,16,28,24.20
2010,05,01,16,29,33.80
2010,05,01,16,30,41.80
2010,05,01,16,31,25.70
2010,05,01,16,32,38.60
2010,05,01,16,33,25.70
2010,05,01,16,34,35.40
2010,05,01,16,35,33.80
2010,05,01,16,36,30.60
2010,05,01,16,37,33.80
2010,05,01,16,38,25.70
2010,05,01,16,39,38.60
2010,05,01,16,40,29.00
2010,05,01,16,41,32.20
2010,05,01,16,42,33.80
2010,05,01,16,43,41.80
2010,05,01,16,44,35.40
2010,05,01,16,45,51.50
2010,05,01,16,46,30.60
2010,05,01,16,47,35.40
2010,05,01,16,48,35.40
2010,05,01,16,49,27.40
2010,05,01,16,50,30.60
2010,05,01,16,51,25.70
2010,05,01,16,52,33.80
2010,05,01,16,53,40.20
2010,05,01,16,54,46.70
2010,05,01,16,55,35.40
2010,05,01,16,56,49.90
2010,05,01,16,57,46.70
2010,05,01,16,58,40.20
2010,05,01,16,59,32.20
2010,05,01,17,00,38.60
2010,05,01,17,01,30.60
2010,05,01,17,02,27.40
2010,05,01,17,03,16.10
2010,05,01,17,04,20.90
2010,05,01,17,05,29.00
2010,05,01,17,06,25.70
2010,05,01,17,07,27.40
2010,05,01,17,08,33.80
2010,05,01,17,09,29.00
2010,05,01,17,10,37.00
2010,05,01,17,11,30.60
2010,05,01,17,12,35.40
2010,05,01,17,13,33.80
2010,05,01,17,14,29.00
2010,05,01,17,15,30.60
2010,05,01,17,16,35.40
2010,05,01,17,17,29.00
2010,05,01,17,18,46.70
2010,05,01,17,19,22.50
2010,05,01,17,20,24.20
2010,05,01,17,21,29.00
2010,05,01,17,22,30.60
2010,05,01,17,23,43.50
2010,05,01,17,24,38.60
2010,05,01,17,25,38.60
2010,05,01,17,26,35.40
2010,05,01,17,27,41.80
2010,05,01,17,28,35.40
2010,05,01,17,29,33.80
2010,05,01,17,30,45.10
2010,05,01,17,31,45.10
2010,05,01,17,32,56.30
2010,05,01,17,33,37.00
2010,05,01,17,34,40.20
2010,05,01,17,35,37.00
2010,05,01,17,36,46.70
2010,05,01,17,37,33.80
2010,05,01,17,38,37.00
2010,05,01,17,39,27.40
2010,05,01,17,40,35.40
2010,05,01,17,41,32.20
2010,05,01,17,42,43.50
2010,05,01,17,43,37.00
2010,05,01,17,44,37.00
2010,05,01,17,45,29.00
2010,05,01,17,46,33.80
2010,05,01,17,47,33.80
2010,05,01,17,48,37.00
2010,05,01,17,49,35.40
2010,05,01,17,50,37.00
2010,05,01,17,51,45.10
2010,05,01,17,52,45.10
2010,05,01,17,53,30.60
2010,05,01,17,54,38.60
2010,05,01,17,55,22.50
2010,05,01,17,56,30.60
2010,05,01,17,57,30.60
2010,05,01,17,58,43.50
2010,05,01,17,59,40.20
2010,05,01,18,00,43.50
2010,05,01,18,01,45.10
2010,05,01,18,02,35.40
2010,05,01,18,03,35.40
2010,05,01,18,04,24.20
2010,05,01,18,05,40.20
2010,05,01,18,06,43.50
2010,05,01,18,07,43.50
2010,05,01,18,08,37.00
2010,05,01,18,09,25.70
2010,05,01,18,10,45.10
2010,05,01,18,11,37.00
2010,05,01,18,12,41.80
2010,05,01,18,13,38.60
2010,05,01,18,14,45.10
2010,05,01,18,15,46.70
2010,05,01,18,16,38.60
2010,05,01,18,17,29.00
2010,05,01,18,18,33.80
2010,05,01,18,19,32.20
2010,05,01,18,20,35.40
2010,05,01,18,21,33.80
2010,05,01,18,22,37.00
2010,05,01,18,23,35.40
2010,05,01,18,24,27.40
2010,05,01,18,25,40.20
2010,05,01,18,26,48.30
2010,05,01,18,27,37.00
2010,05,01,18,28,30.60
2010,05,01,18,29,32.20
2010,05,01,18,30,32.20
2010,05,01,18,31,49.90
2010,05,01,18,32,41.80
2010,05,01,18,33,49.90
2010,05,01,18,34,32.20
2010,05,01,18,35,40.20
2010,05,01,18,36,46.70
2010,05,01,18,37,35.40
2010,05,01,18,38,33.80
2010,05,01,18,39,38.60
2010,05,01,18,40,37.00
2010,05,01,18,41,49.90
2010,05,01,18,42,41.80
2010,05,01,18,43,27.40
2010,05,01,18,44,37.00
2010,05,01,18,45,45.10
2010,05,01,18,46,27.40
2010,05,01,18,47,48.30
2010,05,01,18,48,46.70
2010,05,01,18,49,53.10
2010,05,01,18,50,41.80
2010,05,01,18,51,40.20
2010,05,01,18,52,49.90
2010,05,01,18,53,30.60
2010,05,01,18,54,40.20
2010,05,01,18,55,43.50
2010,05,01,18,56,37.00
2010,05,01,18,57,48.30
2010,05,01,18,58,43.50
2010,05,01,18,59,33.80
2010,05,01,19,00,27.40
2010,05,01,19,01,35.40
2010,05,01,19,02,33.80
2010,05,01,19,03,37.00
2010,05,01,19,04,48.30
2010,05,01,19,05,46.70
2010,05,01,19,06,35.40
2010,05,01,19,07,37.00
2010,05,01,19,08,27.40
2010,05,01,19,09,32.20
2010,05,01,19,10,35.40
2010,05,01,19,11,38.60
2010,05,01,19,12,33.80
2010,05,01,19,13,27.40
2010,05,01,19,14,46.70
2010,05,01,19,15,38.60
2010,05,01,19,16,32.20
2010,05,01,19,17,35.40
2010,05,01,19,18,33.80
2010,05,01,19,19,37.00
2010,05,01,19,20,40.20
2010,05,01,19,21,24.20
2010,05,01,19,22,25.70
2010,05,01,19,23,37.00
2010,05,01,19,24,33.80
2010,05,01,19,25,25.70
2010,05,01,19,26,35.40
2010,05,01,19,27,25.70
2010,05,01,19,28,25.70
2010,05,01,19,29,32.20
2010,05,01,19,30,24.20
2010,05,01,19,31,27.40
2010,05,01,19,32,38.60
2010,05,01,19,33,35.40
2010,05,01,19,34,19.30
2010,05,01,19,35,29.00
2010,05,01,19,36,25.70
2010,05,01,19,37,19.30
2010,05,01,19,38,19.30
2010,05,01,19,39,37.00
2010,05,01,19,40,27.40
2010,05,01,19,41,22.50
2010,05,01,19,42,27.40
2010,05,01,19,43,41.80
2010,05,01,19,44,17.70
2010,05,01,19,45,16.10
2010,05,01,19,46,33.80
2010,05,01,19,47,22.50
2010,05,01,19,48,29.00
2010,05,01,19,49,32.20
2010,05,01,19,50,24.20
2010,05,01,19,51,35.40
2010,05,01,19,52,22.50
2010,05,01,19,53,25.70
2010,05,01,19,54,22.50
2010,05,01,19,55,43.50
2010,05,01,19,56,24.20
2010,05,01,19,57,33.80
2010,05,01,19,58,24.20
2010,05,01,19,59,27.40
2010,05,01,20,00,43.50
2010,05,01,20,01,29.00
2010,05,01,20,02,24.20
2010,05,01,20,03,19.30
2010,05,01,20,04,27.40
2010,05,01,20,05,24.20
2010,05,01,20,06,20.90
2010,05,01,20,07,32.20
2010,05,01,20,08,25.70
2010,05,01,20,09,32.20
2010,05,01,20,10,20.90
2010,05,01,20,11,22.50
2010,05,01,20,12,29.00
2010,05,01,20,13,40.20
2010,05,01,20,14,32.20
2010,05,01,20,15,32.20
2010,05,01,20,16,24.20
2010,05,01,20,17,22.50
2010,05,01,20,18,40.20
2010,05,01,20,19,29.00
2010,05,01,20,20,25.70
2010,05,01,20,21,37.00
2010,05,01,20,22,29.00
2010,05,01,20,23,24.20
2010,05,01,20,24,33.80
2010,05,01,20,25,33.80
2010,05,01,20,26,27.40
2010,05,01,20,27,24.20
2010,05,01,20,28,40.20
2010,05,01,20,29,33.80
2010,05,01,20,30,22.50
2010,05,01,20,31,53.10
2010,05,01,20,32,32.20
2010,05,01,20,33,25.70
2010,05,01,20,34,29.00
2010,05,01,20,35,22.50
2010,05,01,20,36,29.00
2010,05,01,20,37,27.40
2010,05,01,20,38,30.60
2010,05,01,20,39,33.80
2010,05,01,20,40,27.40
2010,05,01,20,41,25.70
2010,05,01,20,42,32.20
2010,05,01,20,43,29.00
2010,05,01,20,44,16.10
2010,05,01,20,45,17.70
2010,05,01,20,46,29.00
2010,05,01,20,47,30.60
2010,05,01,20,48,32.20
2010,05,01,20,49,37.00
2010,05,01,20,50,25.70
2010,05,01,20,51,32.20
2010,05,01,20,52,25.70
2010,05,01,20,53,33.80
2010,05,01,20,54,20.90
2010,05,01,20,55,40.20
2010,05,01,20,56,35.40
2010,05,01,20,57,30.60
2010,05,01,20,58,38.60
2010,05,01,20,59,33.80
2010,05,01,21,00,32.20
2010,05,01,21,01,29.00
2010,05,01,21,02,29.00
2010,05,01,21,03,16.10
2010,05,01,21,04,19.30
2010,05,01,21,05,16.10
2010,05,01,21,06,22.50
2010,05,01,21,07,33.80
2010,05,01,21,08,27.40
2010,05,01,21,09,25.70
2010,05,01,21,10,33.80
2010,05,01,21,11,37.00
2010,05,01,21,12,37.00
2010,05,01,21,13,45.10
2010,05,01,21,14,45.10
2010,05,01,21,15,20.90
2010,05,01,21,16,22.50
2010,05,01,21,17,29.00
2010,05,01,21,18,29.00
2010,05,01,21,19,27.40
2010,05,01,21,20,25.70
2010,05,01,21,21,25.70
2010,05,01,21,22,29.00
2010,05,01,21,23,41.80
2010,05,01,21,24,27.40
2010,05,01,21,25,20.90
2010,05,01,21,26,40.20
2010,05,01,21,27,19.30
2010,05,01,21,28,49.90
2010,05,01,21,29,53.10
2010,05,01,21,30,30.60
2010,05,01,21,31,25.70
2010,05,01,21,32,27.40
2010,05,01,21,33,35.40
2010,05,01,21,34,38.60
2010,05,01,21,35,25.70
2010,05,01,21,36,30.60
2010,05,01,21,37,29.00
2010,05,01,21,38,25.70
2010,05,01,21,39,27.40
2010,05,01,21,40,30.60
2010,05,01,21,41,24.20
2010,05,01,21,42,22.50
2010,05,01,21,43,29.00
2010,05,01,21,44,45.10
2010,05,01,21,45,30.60
2010,05,01,21,46,27.40
2010,05,01,21,47,25.70
2010,05,01,21,48,24.20
2010,05,01,21,49,24.20
2010,05,01,21,50,32.20
2010,05,01,21,51,38.60
2010,05,01,21,52,43.50
2010,05,01,21,53,38.60
2010,05,01,21,54,27.40
2010,05,01,21,55,40.20
2010,05,01,21,56,27.40
2010,05,01,21,57,22.50
2010,05,01,21,58,19.30
2010,05,01,21,59,27.40
2010,05,01,22,00,30.60
2010,05,01,22,01,37.00
2010,05,01,22,02,29.00
2010,05,01,22,03,37.00
2010,05,01,22,04,33.80
2010,05,01,22,05,38.60
2010,05,01,22,06,29.00
2010,05,01,22,07,38.60
2010,05,01,22,08,27.40
2010,05,01,22,09,33.80
2010,05,01,22,10,24.20
2010,05,01,22,11,38.60
2010,05,01,22,12,40.20
2010,05,01,22,13,19.30
2010,05,01,22,14,20.90
2010,05,01,22,15,22.50
2010,05,01,22,16,25.70
2010,05,01,22,17,27.40
2010,05,01,22,18,19.30
2010,05,01,22,19,25.70
2010,05,01,22,20,30.60
2010,05,01,22,21,35.40
2010,05,01,22,22,25.70
2010,05,01,22,23,29.00
2010,05,01,22,24,29.00
2010,05,01,22,25,30.60
2010,05,01,22,26,27.40
2010,05,01,22,27,27.40
2010,05,01,22,28,27.40
2010,05,01,22,29,43.50
2010,05,01,22,30,43.50
2010,05,01,22,31,24.20
2010,05,01,22,32,30.60